New Ulm, MN

5:14 PM CDT on July 26, 2017 (GMT -0500)
New Ulm Municipal

Weather History for KULM - December, 2013

Change the Weather History Date:

Friday, December 6, 2013

  Actual Average Record
Temperature  
Mean Temperature -8 °F -  
Max Temperature -2 °F 28 °F 53 °F (1963)
Min Temperature -14 °F 11 °F -16 °F (2005)
Degree Days  
Heating Degree Days 73    
Moisture  
Dew Point -13 °F    
Average Humidity 78    
Maximum Humidity 92    
Minimum Humidity 71    
Precipitation  
Precipitation 0.00 in - - ()
Sea Level Pressure  
Sea Level Pressure 30.50 in    
Wind  
Wind Speed 10 mph (West)    
Max Wind Speed 15 mph    
Max Gust Speed -    
Visibility 10 miles    
Events      
Averages and records for this station are not official NWS values.
T = Trace of Precipitation, MM = Missing Value Source: NWS Daily Summary

Daily Weather History Graph

Daily Weather History Graph

Search for Another Location

Airport or City:

Trip Planner

Search our weather history database for the weather conditions in past years. The results will help you decide how hot, cold, wet, or windy it might be!

Date:

Astronomy

Dec. 06, 2013 Rise Set
Actual Time 7:39 AM CST 4:38 PM CST
Civil Twilight 7:06 AM CST 5:11 PM CST
Nautical Twilight 6:29 AM CST 5:48 PM CST
Astronomical Twilight 5:54 AM CST 6:23 PM CST
Moon 10:40 AM CST (12/6) 9:17 PM CST (12/6)
Length of Visible Light 10h 05m
Length of Day
8h 59m
Waxing Crescent, 19% of the Moon is Illuminated
Dec 6
Waxing Crescent
Dec 9
First Quarter
Dec 17
Full
Dec 25
Last Quarter
Jan 1
New

Hourly Weather History & Observations

Time (CST) Temp. Windchill Dew Point Humidity Pressure Visibility Wind Dir Wind Speed Gust Speed Precip Events Conditions
12:13 AM -7.6 °F -24.6 °F -11.2 °F 84% 30.37 in 10.0 mi West 9.2 mph - N/A   Clear
12:33 AM -5.8 °F -24.4 °F -11.2 °F 77% 30.36 in 10.0 mi West 11.5 mph - N/A   Clear
12:53 AM -5.8 °F -25.2 °F -11.2 °F 77% 30.36 in 10.0 mi West 12.7 mph - N/A   Clear
1:13 AM -5.8 °F -24.4 °F -11.2 °F 77% 30.36 in 10.0 mi West 11.5 mph - N/A   Clear
1:33 AM -7.6 °F -25.7 °F -11.2 °F 84% 30.36 in 10.0 mi West 10.4 mph - N/A   Clear
1:53 AM -7.6 °F -24.6 °F -13.0 °F 77% 30.37 in 10.0 mi West 9.2 mph - N/A   Clear
2:13 AM -9.4 °F -26.8 °F -14.8 °F 77% 30.37 in 10.0 mi West 9.2 mph - N/A   Clear
2:33 AM -9.4 °F -26.8 °F -14.8 °F 77% 30.37 in 10.0 mi West 9.2 mph - N/A   Clear
2:53 AM -9.4 °F -25.6 °F -14.8 °F 77% 30.37 in 10.0 mi West 8.1 mph - N/A   Clear
3:13 AM -9.4 °F -27.9 °F -14.8 °F 77% 30.37 in 10.0 mi West 10.4 mph - N/A   Clear
3:33 AM -9.4 °F -26.8 °F -14.8 °F 77% 30.37 in 10.0 mi West 9.2 mph - N/A   Clear
3:53 AM -9.4 °F -26.8 °F -14.8 °F 77% 30.37 in 10.0 mi West 9.2 mph - N/A   Clear
4:13 AM -9.4 °F -27.9 °F -14.8 °F 77% 30.38 in 10.0 mi West 10.4 mph - N/A   Clear
4:33 AM -9.4 °F -25.6 °F -14.8 °F 77% 30.39 in 10.0 mi West 8.1 mph - N/A   Clear
4:53 AM -9.4 °F -28.9 °F -14.8 °F 77% 30.40 in 10.0 mi West 11.5 mph - N/A   Clear
5:13 AM -9.4 °F -27.9 °F -14.8 °F 77% 30.40 in 10.0 mi West 10.4 mph - N/A   Clear
5:33 AM -9.4 °F -27.9 °F -14.8 °F 77% 30.41 in 10.0 mi West 10.4 mph - N/A   Clear
5:53 AM -9.4 °F -27.9 °F -14.8 °F 77% 30.42 in 10.0 mi West 10.4 mph - N/A   Clear
6:13 AM -9.4 °F -26.8 °F -14.8 °F 77% 30.43 in 10.0 mi West 9.2 mph - N/A   Clear
6:33 AM -11.2 °F -27.8 °F -16.6 °F 77% 30.44 in 10.0 mi West 8.1 mph - N/A   Clear
6:53 AM -11.2 °F -29.0 °F -16.6 °F 77% 30.44 in 10.0 mi West 9.2 mph - N/A   Clear
7:12 AM -13.0 °F -31.3 °F -16.6 °F 84% 30.45 in 10.0 mi West 9.2 mph - N/A   Clear
7:33 AM -13.0 °F -30.0 °F -18.4 °F 77% 30.46 in 10.0 mi West 8.1 mph - N/A   Clear
7:52 AM -13.0 °F -28.6 °F -16.6 °F 84% 30.47 in 10.0 mi WSW 6.9 mph - N/A   Clear
8:13 AM -13.0 °F -31.3 °F -16.6 °F 84% 30.47 in 10.0 mi West 9.2 mph - N/A   Clear
8:33 AM -13.0 °F -28.6 °F -16.6 °F 84% 30.48 in 10.0 mi West 6.9 mph - N/A   Clear
8:52 AM -11.2 °F -27.8 °F -16.6 °F 77% 30.49 in 7.0 mi West 8.1 mph - N/A   Clear
9:13 AM -9.4 °F -25.6 °F -14.8 °F 77% 30.50 in 10.0 mi West 8.1 mph - N/A   Clear
9:33 AM -9.4 °F -27.9 °F -14.8 °F 77% 30.50 in 10.0 mi West 10.4 mph - N/A   Clear
9:52 AM -7.6 °F -25.7 °F -14.8 °F 71% 30.51 in 10.0 mi West 10.4 mph - N/A   Clear
10:13 AM -7.6 °F -26.6 °F -13.0 °F 77% 30.51 in 10.0 mi WNW 11.5 mph - N/A   Clear
10:32 AM -7.6 °F -26.6 °F -11.2 °F 84% 30.53 in 10.0 mi West 11.5 mph - N/A   Clear
10:53 AM -5.8 °F -23.4 °F -11.2 °F 77% 30.53 in 10.0 mi West 10.4 mph - N/A   Clear
11:12 AM -5.8 °F -22.4 °F -11.2 °F 77% 30.53 in 10.0 mi West 9.2 mph - N/A   Clear
11:33 AM -5.8 °F -24.4 °F -9.4 °F 84% 30.52 in 10.0 mi West 11.5 mph - N/A   Clear
11:52 AM -4.0 °F -20.2 °F -9.4 °F 78% 30.52 in 10.0 mi West 9.2 mph - N/A   Clear
12:13 PM -4.0 °F -20.2 °F -9.4 °F 78% 30.51 in 10.0 mi West 9.2 mph - N/A   Clear
12:33 PM -2.2 °F -18.9 °F -9.4 °F 71% 30.51 in 10.0 mi WNW 10.4 mph - N/A   Clear
12:52 PM -2.2 °F -18.0 °F -9.4 °F 71% 30.51 in 10.0 mi West 9.2 mph - N/A   Clear
1:13 PM -2.2 °F -18.9 °F -9.4 °F 71% 30.51 in 10.0 mi West 10.4 mph - N/A   Clear
1:33 PM -2.2 °F -19.9 °F -9.4 °F 71% 30.51 in 10.0 mi West 11.5 mph - N/A   Clear
1:52 PM -2.2 °F -21.5 °F -9.4 °F 71% 30.51 in 10.0 mi WNW 13.8 mph - N/A   Clear
2:13 PM -2.2 °F -21.5 °F -9.4 °F 71% 30.51 in 10.0 mi West 13.8 mph - N/A   Clear
2:33 PM -2.2 °F -21.5 °F -7.6 °F 78% 30.52 in 10.0 mi West 13.8 mph - N/A   Clear
2:52 PM -2.2 °F -22.2 °F -7.6 °F 78% 30.52 in 10.0 mi West 15.0 mph - N/A   Clear
3:13 PM -2.2 °F -21.5 °F -9.4 °F 71% 30.52 in 10.0 mi West 13.8 mph - N/A   Clear
3:33 PM -2.2 °F -20.7 °F -7.6 °F 78% 30.53 in 10.0 mi WNW 12.7 mph - N/A   Clear
3:52 PM -2.2 °F -18.9 °F -9.4 °F 71% 30.54 in 10.0 mi West 10.4 mph - N/A   Clear
4:13 PM -2.2 °F -19.9 °F -9.4 °F 71% 30.54 in 10.0 mi West 11.5 mph - N/A   Clear
4:33 PM -4.0 °F -21.2 °F -9.4 °F 78% 30.54 in 10.0 mi West 10.4 mph - N/A   Clear
4:52 PM -5.8 °F -21.2 °F -9.4 °F 84% 30.54 in 10.0 mi WNW 8.1 mph - N/A   Clear
5:13 PM -5.8 °F -22.4 °F -11.2 °F 77% 30.54 in 10.0 mi WNW 9.2 mph - N/A   Clear
5:33 PM -7.6 °F -22.1 °F -11.2 °F 84% 30.55 in 10.0 mi West 6.9 mph - N/A   Clear
5:52 PM -7.6 °F -23.4 °F -11.2 °F 84% 30.55 in 10.0 mi West 8.1 mph - N/A   Clear
6:13 PM -7.6 °F -22.1 °F -11.2 °F 84% 30.56 in 10.0 mi West 6.9 mph - N/A   Clear
6:33 PM -9.4 °F -22.7 °F -14.8 °F 77% 30.57 in 10.0 mi West 5.8 mph - N/A   Clear
6:52 PM -9.4 °F -24.3 °F -14.8 °F 77% 30.57 in 10.0 mi West 6.9 mph - N/A   Clear
7:13 PM -9.4 °F -26.8 °F -13.0 °F 84% 30.57 in 10.0 mi WNW 9.2 mph - N/A   Clear
7:33 PM -9.4 °F -26.8 °F -13.0 °F 84% 30.58 in 10.0 mi West 9.2 mph - N/A   Clear
7:52 PM -9.4 °F -25.6 °F -14.8 °F 77% 30.59 in 10.0 mi West 8.1 mph - N/A   Clear
8:13 PM -9.4 °F -24.3 °F -14.8 °F 77% 30.60 in 10.0 mi West 6.9 mph - N/A   Clear
8:33 PM -9.4 °F -25.6 °F -14.8 °F 77% 30.60 in 10.0 mi West 8.1 mph - N/A   Clear
8:52 PM -11.2 °F -24.8 °F -16.6 °F 77% 30.61 in 10.0 mi West 5.8 mph - N/A   Clear
9:13 PM -9.4 °F -26.8 °F -14.8 °F 77% 30.61 in 10.0 mi West 9.2 mph - N/A   Clear
9:33 PM -11.2 °F -23.0 °F -16.6 °F 77% 30.61 in 10.0 mi West 4.6 mph - N/A   Clear
9:52 PM -11.2 °F -29.0 °F -16.6 °F 77% 30.62 in 10.0 mi West 9.2 mph - N/A   Clear
10:13 PM -13.0 °F -31.3 °F -16.6 °F 84% 30.62 in 10.0 mi West 9.2 mph - N/A   Clear
10:33 PM -14.8 °F -33.5 °F -16.6 °F 92% 30.63 in 10.0 mi West 9.2 mph - N/A   Clear
10:52 PM -9.4 °F -27.9 °F -14.8 °F 77% 30.63 in 10.0 mi West 10.4 mph - N/A   Clear
11:13 PM -14.8 °F -33.5 °F -18.4 °F 84% 30.64 in 10.0 mi West 9.2 mph - N/A   Clear
11:33 PM -14.8 °F -32.2 °F -18.4 °F 84% 30.64 in 10.0 mi West 8.1 mph - N/A   Clear
11:52 PM -14.8 °F -30.8 °F -18.4 °F 84% 30.64 in 10.0 mi West 6.9 mph - N/A   Clear